Volver al catálogo

ARIANE 2 DEB

ActivoGTO
NORAD 28567·DEBRIS·🇫🇷 France

Lanzado Jan 27, 1989 desde Guiana Space Centre

Loading…

TLE

ObsoletoSource: Space-Track

Época: Sep 5, 2026, 14:05 UTC

1 28567U 89006AJ  26248.58691418  .00000215  00000-0  20382-2 0  9990
2 28567   7.9663 294.3441 7093612   6.7448 359.3207  2.38137835122403

Sigue ARIANE 2 DEB en tiempo real con AllMySat

Download on the App Store